sat.trackr.live / text

‹ back to catalog

STARLINK-5798

NORAD 56040 · 2023-042BG

PAYLOAD ACTIVE UNKNOWN

§ Identity

Operator
Country
US
Launch date
2023-03-24
Launch site
AFETR
Launch vehicle
Mass (kg)
RCS (m²)

Purposes: comms

External: N2YO · Heavens-Above · Gunter

§ Orbital elements

Epoch: 2026-09-19T15:46:38.365536Z

Period
94.27 min
Inclination
43.0043°
Eccentricity
0.0001799
Mean motion
15.27576260 rev/d
Perigee alt
481.8 km
Apogee alt
484.3 km
Semi-major
6,861.2 km
B*
1.0983e-5
RAAN
15.5977°
Arg perigee
266.6878°
Mean anomaly
93.3767°
Rev number
19,286

§ Raw data

STARLINK-57981 56040U 23042BG  26262.65738849  .00000040  00000+0  10983-4 0  99922 56040  43.0043  15.5977 0001799 266.6878  93.3767 15.27576260192866

JSON: /api/v1/satellites/56040 · /tle

For live sub-satellite position, see the globe view (requires WebGL).

§ Visibility from observer

Set your observer location to see the next 7 days of passes ≥ 10°. The values pass through the URL so the page stays shareable.

No JS? Fill the form by hand. The geolocation button needs JavaScript.